Regional Weather Roundup
Issued by NWS

Home | Current Version | Previous Version | Graphics & Text | Print | Product List | Glossary Off
Versions: 1 2 3 4 5 6 7 8 9 10 11 12 13 14 15 16 17 18 19 20 21 22 23 24 25 26 27 28 29 30 31 32 33 34 35 36 37 38 39 40 41 42 43 44 45 46 47 48 49 50

000
ASUS43 KMKX 251859
RWRWI

WISCONSIN REGIONAL WEATHER ROUNDUP
NATIONAL WEATHER SERVICE MILWAUKEE/SULLIVAN WI
200 PM CDT THU MAY 25 2017

NOTE: "FAIR" INDICATES FEW OR NO CLOUDS BELOW 12,000 FEET WITH NO
SIGNIFICANT WEATHER AND/OR OBSTRUCTIONS TO VISIBILITY.

WIZ001-002-006>008-014>016-023>028-252000-
NORTHWEST WISCONSIN

CITY           SKY/WX    TMP DP  RH WIND       PRES   REMARKS
SUPERIOR ARPT  NOT AVBL
ASHLAND        MOSUNNY   60  46  59 NE14      29.72F
HAYWARD        PTSUNNY   68  47  46 E6        29.68F
SIREN          MOSUNNY   68  47  46 SE12      29.68S
CUMBERLAND     PTSUNNY   64  46  52 S8        29.69S
RICE LAKE      MOSUNNY   67  48  51 SE8       29.69F
CHETEK         MOSUNNY   68  51  56 SE8       29.68F
LADYSMITH      PTSUNNY   69  49  50 SE5       29.70F
EAU CLAIRE     NOT AVBL
MENOMONIE      SUNNY     69  50  51 SE7       29.68F
NEW RICHMOND   PTSUNNY   66  49  53 S9        29.68S
OSCEOLA        PTSUNNY   67  50  53 S9        29.70F
$$

WIZ003>005-009-010-017-018-252000-
NORTH CENTRAL WISCONSIN

CITY           SKY/WX    TMP DP  RH WIND       PRES   REMARKS
MANITOWISH WTR CLOUDY    66  46  48 CALM      29.70S
ARBOR VITAE    PTSUNNY   69  48  46 SE6       29.69F
WOODRUFF       PTSUNNY   69  48  46 SE6       29.69F
RHINELANDER    MOSUNNY   71  47  42 CALM      29.69F
EAGLE RIVER    MOSUNNY   70  43  37 NE7       29.69S
LAND O LAKES   CLOUDY    68  44  41 N3        29.71F
PHILLIPS       CLOUDY    68  49  49 S3        29.68F
TOMAHAWK       PTSUNNY   68  47  46 CALM      29.69F
MEDFORD        MOSUNNY   68  51  55 S5        29.68F
MERRILL        CLOUDY    69  50  50 SE3       29.68F
$$

WIZ029-030-035-036-043>047-252000-
CENTRAL WISCONSIN

CITY           SKY/WX    TMP DP  RH WIND       PRES   REMARKS
WAUSAU         MOSUNNY   68  49  50 CALM      29.66F
MOSINEE        NOT AVBL
MARSHFIELD     PTSUNNY   70  52  52 E7        29.67S
STEVENS POINT  MOSUNNY   68  49  51 SE8       29.68F
WAUPACA        MOSUNNY   73  51  46 E10       29.68S
WAUTOMA        PTSUNNY   71  51  49 NE14      29.67F
WISC RAPIDS    MOSUNNY   70  50  49 E7        29.68S
CAMP DOUGLAS   NOT AVBL
$$

WIZ011>013-019>022-031-037>040-048>050-252000-
NORTHEAST WISCONSIN

CITY           SKY/WX    TMP DP  RH WIND       PRES   REMARKS
ANTIGO         CLOUDY    65  49  57 NE5       29.69S
SHAWANO        MOSUNNY   71  53  51 E7        29.68S
OCONTO         SUNNY     65  52  62 E8        29.67S
STURGEON BAY   PTSUNNY   64  52  64 N12       29.67F
GREEN BAY      SUNNY     66  56  70 NE16      29.67F
MANITOWOC      NOT AVBL
APPLETON       PTSUNNY   68  46  45 NE10      29.66S
CLINTONVILLE   CLOUDY    68  50  52 NE8       29.67S
OSHKOSH        SUNNY     67  53  61 NE8       29.67S
$$

WIZ032>034-041-042-053>061-252000-
SOUTHWEST WISCONSIN

CITY           SKY/WX    TMP DP  RH WIND       PRES   REMARKS
LA CROSSE      SUNNY     70  55  59 NW6       29.67F
SPARTA         SUNNY     68  54  61 S3        29.68F
VIROQUA        MOSUNNY   67  52  58 MISG      29.70S
BOSCOBEL       SUNNY     70  54  56 VRB3      29.69S
PRAIRIE DU CHI SUNNY     66  51  59 CALM      29.69F
PLATTEVILLE    PTSUNNY   64  56  76 NE5       29.70S
$$

WIZ056-057-062-063-064-067-068-252000-
SOUTH CENTRAL WISCONSIN

CITY           SKY/WX    TMP DP  RH WIND       PRES   REMARKS
REEDSBURG      MOSUNNY   67  54  62 CALM      29.67F
BARABOO/DELLS  PTSUNNY   66  50  57 NE7       29.67F
LONE ROCK      NOT AVBL
MINERAL POINT  MOSUNNY   64  55  72 CALM      29.70S
MADISON        PTSUNNY   68  54  60 NE9G16    29.66F
MIDDLETON      MOSUNNY   68  55  63 CALM      29.68F
WATERTOWN      MOSUNNY   65  55  69 N8        29.66F
MONROE         MOSUNNY   64  54  68 N5        29.67F
JANESVILLE     PTSUNNY   64  54  68 VRB5      29.67F
$$

WIZ051-052-058>065-066-070>072-252000-
SOUTHEAST WISCONSIN

CITY           SKY/WX    TMP DP  RH WIND       PRES   REMARKS
MILWAUKEE      MOSUNNY   65  53  65 NE14G20   29.65S
WAUKESHA       PTSUNNY   64  52  63 N9        29.66S
MILWAUKEE/TIMM MOSUNNY   66  50  55 N12       29.65S
RACINE         SUNNY     61  51  70 N14G21    29.66S
KENOSHA        SUNNY     67  54  63 N14G22    29.64S
FOND DU LAC    MOSUNNY   67  53  61 VRB3      29.67S
SHEBOYGAN      SUNNY     64  57  78 NE13      29.65S
WEST BEND      MOSUNNY   68  54  60 NE13G21   29.65S
JUNEAU         MOSUNNY   64  54  69 N8        29.68F
$$

LSZ147-162-252000-
LAKE SUPERIOR

STATION/POSITION TIME  TEMP    WIND        PRES    WAVE
                       AIR SEA DIR/SP/G            HT/PER
                 (UTC) (F)     (DEG/KT/KT) (MB)    (FT/S)
$$

LMZ867-665-643>646-252000-
LAKE MICHIGAN

STATION/POSITION TIME  TEMP    WIND        PRES    WAVE
                       AIR SEA DIR/SP/G            HT/PER
                 (UTC) (F)     (DEG/KT/KT) (MB)    (FT/S)
$$

TC  - TEMPERATURE IN CELSIUS
VSB - VISIBILITY IN STATUTE MILES
WCI - WIND CHILL INDEX
HX  - HEAT INDEX




USA.gov is the U.S. government's official web portal to all federal, state and local government web resources and services.